Regional Weather Roundup
Issued by NWS

Home | Current Version | Previous Version | Text Only | Print | Product List | Glossary On
Versions: 1 2 3 4 5 6 7 8 9 10 11 12 13 14 15 16 17 18 19 20 21 22 23 24 25 26 27 28 29 30 31 32 33 34 35 36 37 38 39 40 41 42 43 44 45 46 47 48 49 50
000
ASUS43 KMKX 161011
RWRWI

WISCONSIN REGIONAL WEATHER ROUNDUP
NATIONAL WEATHER SERVICE MILWAUKEE/SULLIVAN WI
500 AM CDT WED APR 16 2014

NOTE: "FAIR" INDICATES FEW OR NO CLOUDS BELOW 12,000 FEET WITH NO
SIGNIFICANT WEATHER AND/OR OBSTRUCTIONS TO VISIBILITY.

WIZ001-002-006>008-014>016-023>028-161100-
NORTHWEST WISCONSIN

CITY           SKY/WX    TMP DP  RH WIND       PRES   REMARKS
SUPERIOR ARPT  CLOUDY    26  17  69 NE6       30.14S WCI  19
ASHLAND        CLOUDY    21  12  68 CALM      30.16R
HAYWARD        CLOUDY    26   8  46 E8        30.11S WCI  18
SIREN          CLOUDY    30  12  47 SE7       30.09S WCI  23
RICE LAKE      NOT AVBL
LADYSMITH      CLOUDY    28  19  67 SE7       30.14R WCI  21
EAU CLAIRE     CLOUDY    29  24  82 E9        30.10F WCI  20
MENOMONIE      CLOUDY    30  25  83 E16       30.09S WCI  18
NEW RICHMOND   CLOUDY    28  25  88 E15G22    30.04F WCI  17
OSCEOLA        LGT SNOW  28  28  96 E13       30.08F WCI  18
$$

WIZ003>005-009-010-017-018-161100-
NORTH CENTRAL WISCONSIN

CITY           SKY/WX    TMP DP  RH WIND       PRES   REMARKS
WOODRUFF       MOCLDY    17   6  61 SE3       30.14R
RHINELANDER    CLOUDY    12   8  84 CALM      30.15R
EAGLE RIVER    PTCLDY     9   4  83 CALM      30.14S
LAND O LAKES   MOCLDY     1  -3  84 CALM      30.15S
PHILLIPS       CLOUDY    22  12  65 CALM      30.12S
TOMAHAWK       CLOUDY    18  14  86 CALM      30.15R
MEDFORD        CLOUDY    26  17  70 SE6       30.12S WCI  19
MERRILL        CLOUDY    20  17  88 CALM      30.16S
$$

WIZ029-030-035-036-043>047-161100-
CENTRAL WISCONSIN

CITY           SKY/WX    TMP DP  RH WIND       PRES   REMARKS
WAUSAU         CLOUDY    23  16  74 E5        30.15S WCI  17
MOSINEE        PTCLDY    23  18  80 SE6       30.17R WCI  16
MARSHFIELD     LGT SNOW  28  17  63 SE12      30.14S WCI  18
STEVENS POINT  CLOUDY    23  15  72 SE5       30.18R WCI  17
WAUPACA        CLOUDY    27  21  80 CALM      30.21S
WAUTOMA        MOCLDY    28  21  75 CALM      30.20S
WISC RAPIDS    CLOUDY    27  18  69 SE8       30.18S WCI  19
CAMP DOUGLAS   MOCLDY    28  21  75 E9        30.15S WCI  19
$$

WIZ011>013-019>022-031-037>040-048>050-161100-
NORTHEAST WISCONSIN

CITY           SKY/WX    TMP DP  RH WIND       PRES   REMARKS
ANTIGO         MOCLDY    21  14  75 S6        30.16S WCI  13
STURGEON BAY   CLEAR     25  16  68 S6        30.24R WCI  18
GREEN BAY      CLEAR     25  21  85 S3        30.24R
MANITOWOC      CLEAR     22  18  85 CALM      30.25R
APPLETON       CLOUDY    27  21  80 SE3       30.22R
CLINTONVILLE   PTCLDY    23  19  86 CALM      30.21R
OSHKOSH        CLOUDY    28  20  71 SE5       30.21R WCI  23
$$

WIZ032>034-041-042-053>061-161100-
SOUTHWEST WISCONSIN

CITY           SKY/WX    TMP DP  RH WIND       PRES   REMARKS
LA CROSSE      CLOUDY    33  17  51 SE9       30.11S WCI  25
SPARTA         CLOUDY    30  19  61 E8        30.14S WCI  23
VIROQUA        CLOUDY    30  20  67 SE10G16   30.10S WCI  21
BOSCOBEL       CLOUDY    32  18  56 E5        30.15R WCI  27
PRAIRIE DU CHI MOCLDY    33  18  54 E9        30.12S WCI  25
PLATTEVILLE    FAIR      31  20  65 SE10      30.14S WCI  22
$$

WIZ056-057-062-063-064-067-068-161100-
SOUTH CENTRAL WISCONSIN

CITY           SKY/WX    TMP DP  RH WIND       PRES   REMARKS
BARABOO/DELLS  CLOUDY    29  19  66 E7        30.16S WCI  22
LONE ROCK      CLOUDY    30  22  72 E8        30.17R WCI  22
WATERTOWN      PTCLDY    27  22  80 SE6       30.20R WCI  21
MADISON        MOCLDY    29  21  72 SE7       30.19R WCI  22
MIDDLETON      FAIR      31  22  68 SE8       30.18R WCI  23
MONROE         CLEAR     28  20  74 SE8       30.15F WCI  19
JANESVILLE     CLEAR     28  21  74 SE7       30.19S WCI  21
$$

WIZ051-052-058>065-066-070>072-161100-
SOUTHEAST WISCONSIN

CITY           SKY/WX    TMP DP  RH WIND       PRES   REMARKS
MILWAUKEE      MOCLDY    30  22  72 S7        30.24S WCI  23
WAUKESHA       CLOUDY    27  23  86 SE5       30.23S WCI  21
MILWAUKEE/TIMM CLOUDY    28  23  80 E5        30.23F WCI  23
RACINE         PTCLDY    28  22  78 CALM      30.25S
BURLINGTON     MOCLDY    24  23  96 CALM      30.22S
KENOSHA        CLOUDY    28  22  78 S6        30.24R WCI  22
FOND DU LAC    CLOUDY    28  21  75 SE6       30.21S WCI  22
SHEBOYGAN      MOCLDY    25  22  88 CALM      30.24R
WEST BEND      CLOUDY    27  23  86 CALM      30.22S
JUNEAU         CLOUDY    29  20  68 E7        30.21R WCI  22
$$

LSZ147-162-161100-
LAKE SUPERIOR

STATION/POSITION TIME  TEMP    WIND        PRES    WAVE
                       AIR SEA DIR/SP/G            HT/PER
                 (UTC) (F)     (DEG/KT/KT) (MB)    (FT/S)
DEVILS ISLAND    0900   27     170/  5/  6 1022.4R
PORT WING        0900   23      CALM  /  1 1020.7S
SAXON HARBOR     0900          180/  3/  7 1021.3
$$

LMZ867-665-643>646-161100-
LAKE MICHIGAN

STATION/POSITION TIME  TEMP    WIND        PRES    WAVE
                       AIR SEA DIR/SP/G            HT/PER
                 (UTC) (F)     (DEG/KT/KT) (MB)    (FT/S)
NORTHPORT PIER   0900   27     130/ 10/ 12 1024.0R
SISTER BAY       0923   19        CALM       N/A
KEWAUNEE LAKESHO 0900   29     220/  6/  8 1024.4R
SHEBOYGAN LAKESH 1000   33     160/ 12/ 13 1025.2R
PORT WASHINGTON  0900   33     150/ 10/ 11 1024.7R
MILWAUKEE LAKESH 0900   34     130/ 12/ 13   N/A
KENOSHA   LAKESH 1000   34     190/  8/ 13   N/A
$$

TC  - TEMPERATURE IN CELSIUS
VSB - VISIBILITY IN STATUTE MILES
WCI - WIND CHILL INDEX
HX  - HEAT INDEX




USA.gov is the U.S. government's official web portal to all federal, state and local government web resources and services.